Location: Kellogg
(38.0159°N, 90.0546°W)
Time: 08:41:10
(UTC+00:00)

S-56A Canister/Altair - Pass Details

Date: 22 September 2024
Orbit: 636 x 2487 km, 38.9° (Epoch: 09 October)

Event Time Altitude Azimuth Distance (km) Brightness Sun altitude
Rises 00:00:20 0° 266° (W) 2,986 13.5 -1.3°
Reaches altitude 10° 00:02:26 10° 267° (W) 2,151 12.0 -1.7°
Maximum altitude 00:07:17 84° 354° (N) 836 7.8 -2.7°
Drops below altitude 10° 00:14:04 10° 84° (E) 2,954 9.9 -4.0°
Enters shadow 00:15:46 - 85° (E) 3,600 10.3 -4.4°
Sets 00:17:23 0° 86° (E) 4,205 - -4.7°
